This is the latest recevied weather packets stored in our database for station/object KA8DUX-2. If no packets are shown the sender has not sent any weather packets the latest 1 day(s).
| Time | Temp. | Humidity | Pressure | Rain* | Wind** | Luminosity | Snow |
|---|---|---|---|---|---|---|---|
| 1778023624 | 10.56° C | 48% | 1007.4 hPa | 0 mm | 0 m/s | 51 W/m² | - |
| 1778023321 | 11.11° C | 47% | 1007.2 hPa | 0 mm | 0.89 m/s, 222° | 49 W/m² | - |
| 1778023018 | 11.11° C | 47% | 1007.1 hPa | 0 mm | 0.45 m/s, 243° | 51 W/m² | - |
| 1778022717 | 11.11° C | 49% | 1007.1 hPa | 0 mm | 0 m/s | 65 W/m² | - |
| 1778022414 | 11.11° C | 46% | 1007.1 hPa | 0 mm | 0 m/s | 69 W/m² | - |
| 1778022111 | 11.11° C | 49% | 1007.3 hPa | 0 mm | 0 m/s | 77 W/m² | - |
| 1778021807 | 11.11° C | 46% | 1007.4 hPa | 0 mm | 0.89 m/s, 184° | 70 W/m² | - |
| 1778021503 | 11.11° C | 46% | 1007.3 hPa | 0 mm | 0.45 m/s, 194° | 76 W/m² | - |
| 1778021199 | 11.11° C | 45% | 1007.4 hPa | 0 mm | 0.45 m/s, 132° | 78 W/m² | - |
| 1778020898 | 11.67° C | 44% | 1007.3 hPa | 0 mm | 0.45 m/s, 216° | 108 W/m² | - |
| 1778020595 | 11.67° C | 45% | 1007.3 hPa | 0 mm | 0.89 m/s, 319° | 104 W/m² | - |
| 1778020290 | 11.67° C | 45% | 1007.3 hPa | 0 mm | 0.89 m/s, 217° | 96 W/m² | - |
| 1778019987 | 11.11° C | 47% | 1007.3 hPa | 0 mm | 0 m/s | 103 W/m² | - |
| 1778019683 | 11.67° C | 45% | 1007.1 hPa | 0 mm | 0.45 m/s, 155° | 90 W/m² | - |
| 1778019380 | 11.67° C | 48% | 1007.4 hPa | 0 mm | 0 m/s | 131 W/m² | - |
| 1778019077 | 11.67° C | 47% | 1007.4 hPa | 0 mm | 0.89 m/s, 176° | 113 W/m² | - |
| 1778018774 | 11.67° C | 45% | 1007.1 hPa | 0 mm | 1.34 m/s, 193° | 111 W/m² | - |
| 1778018472 | 11.67° C | 46% | 1007.1 hPa | 0 mm | 0.45 m/s, 108° | 108 W/m² | - |
| 1778018169 | 11.67° C | 45% | 1006.9 hPa | 0 mm | 0.45 m/s, 236° | 115 W/m² | - |
| 1778017867 | 11.67° C | 46% | 1007.5 hPa | 0 mm | 0.89 m/s, 356° | 117 W/m² | - |
| 1778017565 | 11.67° C | 46% | 1007.5 hPa | 0 mm | 1.34 m/s, 160° | 118 W/m² | - |
| 1778017262 | 11.67° C | 45% | 1007.4 hPa | 0 mm | 0.89 m/s, 95° | 117 W/m² | - |
| 1778016960 | 11.67° C | 44% | 1007.3 hPa | 0 mm | 0.89 m/s, 247° | 125 W/m² | - |
| 1778016656 | 11.67° C | 46% | 1007.2 hPa | 0 mm | 0.45 m/s, 147° | 124 W/m² | - |
| 1778016352 | 11.67° C | 44% | 1007.2 hPa | 0 mm | 0.45 m/s, 130° | 129 W/m² | - |
* Rain latest hour (hover to see other rain measurements)
** Current wind speed in m/s (hover to see current wind gust speed)